Regional Weather Roundup
Issued by NWS Sterling, VA

Home | Current Version | Previous Version | Graphics & Text | Print | Product List | Glossary On
Versions: 1 2 3 4 5 6 7 8 9 10 11 12 13 14 15 16 17 18 19 20 21 22 23 24 25 26 27
000
ASUS41 KLWX 201010
RWRLWX

REGIONAL WEATHER ROUNDUP
NATIONAL WEATHER SERVICE BALTIMORE MD/WASHINGTON DC
600 AM EDT SUN APR 20 2014

Note: "FAIR" indicates few or no clouds below 12,000 feet
with no significant weather and/or obstructions to visibility.
 TC=TEMPERATURE CELSIUS

 * =Non NWS site. Station does not report precipitation (e.g. rain,
    snow, etc.), thunder, or fog.

DCZ001-MDZ009-015-VAZ040>042-051-053>054-201100-
WASHINGTON METRO

CITY           SKY/WX    TMP DP  RH WIND       PRES   REMARKS
WASHINGTON NAT CLOUDY    51  35  54 NE6       30.35R
DULLES         CLOUDY    42  31  64 N3        30.34R
ANDREWS AFB    CLOUDY    44  36  74 N8        30.33R
FT BELVOIR     CLOUDY    43  39  84 W3        30.33S
QUANTICO       CLOUDY    46  40  79 NW5       30.33S
LEESBURG*      CLOUDY    46  30  53 N7        30.36S
MANASSAS*      CLOUDY    43  36  75 CALM      30.34R
GAITHERSBURG*  CLOUDY    43  28  56 CALM      30.37R

$$

MDZ006>007-011-014-201100-
BALTIMORE METRO

CITY           SKY/WX    TMP DP  RH WIND       PRES   REMARKS
BWI AIRPORT    CLOUDY    49  28  44 NE9       30.34R
MD SCIENCE CTR   N/A     52  28  39 MISG      30.36R
MARTIN STATE   CLOUDY    48  32  53 CALM      30.37R
ANNAPOLIS      CLOUDY    52  38  58 NE9       30.33R

$$

MDZ012-015-019>023-201100-
MARYLAND EASTERN SHORE

CITY           SKY/WX    TMP DP  RH WIND       PRES   REMARKS
OCEAN CITY     CLOUDY    50  39  66 NE16G23   30.29S
SALISBURY      CLOUDY    49  38  65 NE9       30.30S
EASTON*        MOCLDY    46  39  76 NE7       30.36S

$$

MDZ017>025-201100-
SOUTHERN MARYLAND

CITY           SKY/WX    TMP DP  RH WIND       PRES   REMARKS
PATUXENT RIVER CLOUDY    48  38  68 NE9       30.31R
ST INIGOES     CLOUDY    49  36  61 NE7       30.30R
LEONARDTOWN*   NOT AVBL

$$

MDZ003>005-201100-
NORTH CENTRAL MARYLAND

CITY           SKY/WX    TMP DP  RH WIND       PRES   REMARKS
FREDERICK*     NOT AVBL
HAGERSTOWN APT PTCLDY    43  26  51 N9        30.36R
WESTMINSTER*   CLOUDY    46  27  46 E8        30.35R

$$

MDZ501>502-201100-
WESTERN MARYLAND

CITY           SKY/WX    TMP DP  RH WIND       PRES   REMARKS
OAKLAND*       NOT AVBL
CUMBERLAND*    PTCLDY    41  32  70 CALM      30.40R

$$

VAZ025>031-201100-
SHENANDOAH VALLEY

CITY           SKY/WX    TMP DP  RH WIND       PRES   REMARKS
WINCHESTER*    MOCLDY    45  27  49 CALM      30.35R
STAUNTON*      CLOUDY    40  33  74 CALM      30.33R

$$

WVZ021-048>050-054>055-201100-
EASTERN WEST VIRGINIA PANHANDLE

CITY           SKY/WX    TMP DP  RH WIND       PRES   REMARKS
MARTINSBURG    MOCLDY    46  26  45 N8        30.36R
PETERSBURG*    PTCLDY    38  35  91 CALM      30.37R

$$

VAZ036>039-050-201100-
CENTRAL FOOTHILLS

CITY           SKY/WX    TMP DP  RH WIND       PRES   REMARKS
CHARLOTTESVILL CLOUDY    47  30  51 CALM      30.31R
CULPEPER*      CLOUDY    43  34  70 N3        30.34S

$$

VAZ055>057-201100-
NORTH AND CENTRAL PIEDMONT

CITY           SKY/WX    TMP DP  RH WIND       PRES   REMARKS
FREDERICKSBRG* CLOUDY    45  39  81 NW3       30.31S
STAFFORD*      CLOUDY    42  41  95 CALM      30.36S

$$

NCZ024-NYZ072-PAZ021-071-VAZ022-071-201100-
OTHER REGIONAL OBSERVATIONS

CITY           SKY/WX    TMP DP  RH WIND       PRES   REMARKS
NEW YORK CITY  PTCLDY    47  33  58 E9        30.46R
PHILADELPHIA   CLOUDY    50  29  44 NE13G22   30.39R
PITTSBURGH     PTCLDY    43  28  55 CALM      30.31R
ROANOKE        CLOUDY    46  40  79 CALM      30.31R
RICHMOND       CLOUDY    49  33  54 N9        30.28R
RALEIGH        CLOUDY    51  34  52 NE9G18    30.20R

$$

ANZ530>537-201100-
MARINE OBSERVATIONS

STATION/POSITION TIME  TEMP    WIND        PRES
                       AIR SEA DIR/SP/G
                 (UTC) (F)     (DEG/KT/KT) (MB)
THOMAS PT LIGHT  1000   53 53   40/ 13/ 14 1027.4R
BALT KEY BRIDGE  1000   51      30/ 12/ 13 1027.5R
COVE POINT       1000   51      50/  8/ 11 1026.3R
LEWISETTA        1000   52 54   30/  8/ 13 1025.5S
SOLOMONS ISLAND  1000      52                N/A
PINEY POINT      1000           20/ 10/ 10   N/A

$$




USA.gov is the U.S. government's official web portal to all federal, state and local government web resources and services.